| time (UTC) | temp C | wind direction | speed KPH | gust KPH | rain 1hr cm | rain 24hr cm | rain mn cm | humidity % | barometer mb |
| 20260507210557 | 23 | 40 | 9.7 | 19.3 | 0.00 | 0.00 | 0.00 | 28 | 1011.0 |
| 20260507210056 | 23 | 24 | 8.0 | 20.9 | 0.00 | 0.00 | 0.00 | 27 | 1011.1 |
| 20260507205556 | 23 | 16 | 11.3 | 20.9 | 0.00 | 0.00 | 0.00 | 29 | 1011.1 |
| 20260507205052 | 23 | 328 | 6.4 | 25.7 | 0.00 | 0.00 | 0.00 | 28 | 1011.3 |
| 20260507204600 | 22 | 33 | 12.9 | 25.7 | 0.00 | 0.00 | 0.00 | 31 | 1011.4 |
| 20260507204051 | 22 | 47 | 9.7 | 17.7 | 0.00 | 0.00 | 0.00 | 29 | 1011.4 |
| 20260507203548 | 21 | 47 | 8.0 | 16.1 | 0.00 | 0.00 | 0.00 | 29 | 1011.5 |
| 20260507203048 | 22 | 7 | 6.4 | 19.3 | 0.00 | 0.00 | 0.00 | 28 | 1011.7 |
| 20260507202545 | 22 | 350 | 4.8 | 17.7 | 0.00 | 0.00 | 0.00 | 28 | 1011.7 |
| 20260507202043 | 22 | 18 | 9.7 | 17.7 | 0.00 | 0.00 | 0.00 | 27 | 1011.6 |
| 20260507201544 | 22 | 62 | 4.8 | 11.3 | 0.00 | 0.00 | 0.00 | 29 | 1011.7 |
| 20260507201041 | 22 | 74 | 4.8 | 24.1 | 0.00 | 0.00 | 0.00 | 29 | 1011.8 |
| 20260507200540 | 22 | 359 | 11.3 | 25.7 | 0.00 | 0.00 | 0.00 | 29 | 1011.8 |
| 20260507200040 | 21 | 345 | 12.9 | 20.9 | 0.00 | 0.00 | 0.00 | 30 | 1011.9 |
| 20260507195540 | 21 | 282 | 12.9 | 22.5 | 0.00 | 0.00 | 0.00 | 31 | 1011.9 |
| 20260507195040 | 21 | 240 | 12.9 | 25.7 | 0.00 | 0.00 | 0.00 | 32 | 1012.1 |
| 20260507194535 | 21 | 248 | 14.5 | 24.1 | 0.00 | 0.00 | 0.00 | 30 | 1012.0 |
| 20260507194034 | 20 | 220 | 6.4 | 19.3 | 0.00 | 0.00 | 0.00 | 31 | 1012.1 |
| 20260507193532 | 20 | 258 | 6.4 | 17.7 | 0.00 | 0.00 | 0.00 | 31 | 1012.3 |
| 20260507193032 | 20 | 219 | 6.4 | 17.7 | 0.00 | 0.00 | 0.00 | 31 | 1012.4 |
| 20260507192527 | 20 | 232 | 8.0 | 22.5 | 0.00 | 0.00 | 0.00 | 31 | 1012.4 |
| 20260507192026 | 21 | 187 | 11.3 | 30.6 | 0.00 | 0.00 | 0.00 | 31 | 1012.5 |
| 20260507191525 | 21 | 237 | 16.1 | 32.2 | 0.00 | 0.00 | 0.00 | 29 | 1012.5 |
| 20260507191027 | 21 | 245 | 14.5 | 27.4 | 0.00 | 0.00 | 0.00 | 31 | 1012.5 |
| 20260507190522 | 21 | 257 | 11.3 | 25.7 | 0.00 | 0.00 | 0.00 | 30 | 1012.7 |
| 20260507190034 | 21 | 225 | 12.9 | 25.7 | 0.00 | 0.00 | 0.00 | 30 | 1012.7 |
| 20260507185519 | 21 | 252 | 8.0 | 16.1 | 0.00 | 0.00 | 0.00 | 30 | 1012.9 |
| 20260507185020 | 21 | 219 | 9.7 | 19.3 | 0.00 | 0.00 | 0.00 | 30 | 1012.9 |
| 20260507184525 | 20 | 177 | 11.3 | 19.3 | 0.00 | 0.00 | 0.00 | 29 | 1013.0 |
| 20260507184014 | 21 | 213 | 11.3 | 20.9 | 0.00 | 0.00 | 0.00 | 32 | 1013.1 |
| 20260507183513 | 21 | 205 | 11.3 | 24.1 | 0.00 | 0.00 | 0.00 | 30 | 1013.2 |
| 20260507183018 | 20 | 203 | 9.7 | 19.3 | 0.00 | 0.00 | 0.00 | 30 | 1013.2 |
| 20260507182510 | 20 | 191 | 11.3 | 22.5 | 0.00 | 0.00 | 0.00 | 29 | 1013.4 |
| 20260507182011 | 20 | 256 | 16.1 | 22.5 | 0.00 | 0.00 | 0.00 | 30 | 1013.4 |
| 20260507181507 | 20 | 201 | 9.7 | 16.1 | 0.00 | 0.00 | 0.00 | 31 | 1013.5 |
| 20260507181005 | 20 | 167 | 9.7 | 19.3 | 0.00 | 0.00 | 0.00 | 30 | 1013.6 |
| 20260507180503 | 20 | 240 | 6.4 | 16.1 | 0.00 | 0.00 | 0.00 | 31 | 1013.7 |
| 20260507180007 | 20 | 195 | 8.0 | 16.1 | 0.00 | 0.00 | 0.00 | 31 | 1013.8 |
| 20260507175501 | 20 | 195 | 8.0 | 25.7 | 0.00 | 0.00 | 0.00 | 31 | 1013.9 |
| 20260507175100 | 20 | 223 | 12.9 | 25.7 | 0.00 | 0.00 | 0.00 | 31 | 1014.0 |
| 20260507174559 | 20 | 181 | 9.7 | 20.9 | 0.00 | 0.00 | 0.00 | 32 | 1013.9 |
| 20260507174056 | 20 | 245 | 11.3 | 22.5 | 0.00 | 0.00 | 0.00 | 31 | 1014.2 |
| 20260507173555 | 20 | 163 | 16.1 | 22.5 | 0.00 | 0.00 | 0.00 | 31 | 1014.2 |
| 20260507173056 | 20 | 182 | 14.5 | 20.9 | 0.00 | 0.00 | 0.00 | 31 | 1014.1 |
| 20260507172552 | 19 | 225 | 9.7 | 24.1 | 0.00 | 0.00 | 0.00 | 31 | 1014.2 |
| 20260507172051 | 19 | 154 | 16.1 | 25.7 | 0.00 | 0.00 | 0.00 | 31 | 1014.4 |
| 20260507171554 | 18 | 150 | 16.1 | 25.7 | 0.00 | 0.00 | 0.00 | 31 | 1014.5 |
| 20260507171047 | 18 | 192 | 14.5 | 19.3 | 0.00 | 0.00 | 0.00 | 31 | 1014.5 |
| 20260507170546 | 18 | 157 | 16.1 | 20.9 | 0.00 | 0.00 | 0.00 | 32 | 1014.5 |
| 20260507170048 | 18 | 186 | 16.1 | 22.5 | 0.00 | 0.00 | 0.00 | 32 | 1014.7 |
| 20260507165544 | 18 | 221 | 16.1 | 24.1 | 0.00 | 0.00 | 0.00 | 33 | 1014.8 |
| 20260507165045 | 17 | 170 | 16.1 | 24.1 | 0.00 | 0.00 | 0.00 | 33 | 1014.7 |
| 20260507164540 | 17 | 182 | 12.9 | 22.5 | 0.00 | 0.00 | 0.00 | 34 | 1014.9 |
| 20260507164039 | 17 | 190 | 16.1 | 24.1 | 0.00 | 0.00 | 0.00 | 34 | 1015.0 |
| 20260507163540 | 17 | 166 | 17.7 | 22.5 | 0.00 | 0.00 | 0.00 | 33 | 1015.1 |
| 20260507163036 | 17 | 144 | 17.7 | 20.9 | 0.00 | 0.00 | 0.00 | 33 | 1015.0 |
| 20260507162535 | 17 | 151 | 14.5 | 20.9 | 0.00 | 0.00 | 0.00 | 36 | 1015.0 |
| 20260507162032 | 17 | 150 | 17.7 | 24.1 | 0.00 | 0.00 | 0.00 | 35 | 1015.1 |
| 20260507161531 | 17 | 195 | 16.1 | 22.5 | 0.00 | 0.00 | 0.00 | 36 | 1015.2 |
| 20260507161029 | 16 | 161 | 17.7 | 27.4 | 0.00 | 0.00 | 0.00 | 37 | 1015.3 |
| 20260507160530 | 16 | 154 | 17.7 | 22.5 | 0.00 | 0.00 | 0.00 | 38 | 1015.4 |
| 20260507160026 | 16 | 165 | 16.1 | 24.1 | 0.00 | 0.00 | 0.00 | 39 | 1015.5 |
| 20260507155525 | 15 | 110 | 14.5 | 27.4 | 0.00 | 0.03 | 0.00 | 40 | 1015.6 |
| 20260507155023 | 15 | 146 | 17.7 | 27.4 | 0.00 | 0.03 | 0.00 | 41 | 1015.7 |
| 20260507154522 | 14 | 156 | 19.3 | 29.0 | 0.00 | 0.03 | 0.00 | 39 | 1015.7 |
| 20260507154021 | 13 | 153 | 19.3 | 27.4 | 0.00 | 0.03 | 0.00 | 41 | 1015.8 |
| 20260507153519 | 13 | 153 | 17.7 | 22.5 | 0.00 | 0.03 | 0.00 | 42 | 1016.0 |
| 20260507153018 | 12 | 162 | 14.5 | 22.5 | 0.00 | 0.03 | 0.00 | 43 | 1016.3 |
| 20260507152516 | 12 | 170 | 14.5 | 22.5 | 0.00 | 0.03 | 0.00 | 43 | 1016.2 |
| 20260507152014 | 12 | 156 | 14.5 | 22.5 | 0.00 | 0.03 | 0.00 | 43 | 1016.3 |
| 20260507151515 | 13 | 157 | 14.5 | 22.5 | 0.00 | 0.03 | 0.00 | 43 | 1016.4 |
| 20260507151011 | 13 | 159 | 16.1 | 22.5 | 0.00 | 0.03 | 0.00 | 43 | 1016.4 |
| 20260507150510 | 13 | 166 | 16.1 | 22.5 | 0.00 | 0.03 | 0.00 | 43 | 1016.4 |
| 20260507150012 | 12 | 167 | 17.7 | 24.1 | 0.00 | 0.03 | 0.00 | 46 | 1016.4 |
| 20260507145507 | 11 | 169 | 14.5 | 22.5 | 0.00 | 0.03 | 0.00 | 50 | 1016.5 |
| 20260507145005 | 10 | 190 | 14.5 | 20.9 | 0.00 | 0.03 | 0.00 | 51 | 1016.6 |
| 20260507144504 | 10 | 175 | 12.9 | 19.3 | 0.00 | 0.03 | 0.00 | 49 | 1016.7 |
| 20260507144003 | 8 | 167 | 11.3 | 16.1 | 0.00 | 0.03 | 0.00 | 40 | 1016.7 |
| 20260507143603 | 8 | 187 | 11.3 | 16.1 | 0.00 | 0.03 | 0.00 | 23 | 1016.8 |
| 20260507143102 | 7 | 153 | 11.3 | 14.5 | 0.00 | 0.03 | 0.00 | 1 | 1016.8 |
| 20260507142558 | 7 | 178 | 8.0 | 11.3 | 0.00 | 0.03 | 0.00 | 1 | 1016.8 |
| 20260507142056 | 6 | 170 | 6.4 | 11.3 | 0.00 | 0.03 | 0.00 | 1 | 1016.8 |
| 20260507141602 | 6 | 175 | 8.0 | 12.9 | 0.00 | 0.03 | 0.00 | 1 | 1016.7 |
| 20260507141053 | 6 | 170 | 9.7 | 12.9 | 0.00 | 0.03 | 0.00 | 1 | 1016.7 |
| 20260507140552 | 5 | 164 | 9.7 | 12.9 | 0.00 | 0.03 | 0.00 | 1 | 1016.6 |
| 20260507140107 | 5 | 175 | 9.7 | 14.5 | 0.00 | 0.03 | 0.00 | 1 | 1016.6 |
| 20260507135548 | 4 | 166 | 11.3 | 14.5 | 0.00 | 0.03 | 0.00 | 1 | 1016.6 |
| 20260507135048 | 3 | 173 | 8.0 | 11.3 | 0.00 | 0.03 | 0.00 | 1 | 1016.6 |
| 20260507134546 | 3 | 148 | 6.4 | 12.9 | 0.00 | 0.03 | 0.00 | 1 | 1016.6 |
| 20260507134044 | 2 | 158 | 8.0 | 11.3 | 0.00 | 0.03 | 0.00 | 1 | 1016.6 |
| 20260507133543 | 2 | 158 | 6.4 | 12.9 | 0.00 | 0.03 | 0.00 | 1 | 1016.5 |
| 20260507133041 | 2 | 136 | 6.4 | 12.9 | 0.00 | 0.03 | 0.00 | 1 | 1016.5 |
| 20260507132539 | 1 | 118 | 4.8 | 11.3 | 0.00 | 0.03 | 0.00 | 1 | 1016.5 |
| 20260507132040 | 1 | 155 | 6.4 | 11.3 | 0.00 | 0.03 | 0.00 | 1 | 1016.5 |
| 20260507131538 | 1 | 155 | 8.0 | 11.3 | 0.00 | 0.03 | 0.00 | 1 | 1016.6 |
| 20260507131037 | 1 | 158 | 8.0 | 11.3 | 0.00 | 0.03 | 0.00 | 1 | 1016.5 |
| 20260507130534 | 1 | 194 | 6.4 | 8.0 | 0.00 | 0.03 | 0.00 | 1 | 1016.5 |
| 20260507130036 | 1 | 184 | 3.2 | 6.4 | 0.00 | 0.03 | 0.00 | 1 | 1016.5 |
| 20260507125534 | 0 | 184 | 1.6 | 6.4 | 0.00 | 0.03 | 0.00 | 1 | 1016.5 |
| 20260507125030 | 0 | 184 | 1.6 | 6.4 | 0.00 | 0.03 | 0.00 | 1 | 1016.4 |
| 20260507124528 | 0 | 184 | 0.0 | 6.4 | 0.00 | 0.03 | 0.00 | 1 | 1016.4 |
| 20260507124027 | 0 | 184 | 0.0 | 6.4 | 0.00 | 0.03 | 0.00 | 1 | 1016.5 |
| 20260507123525 | 0 | 184 | 3.2 | 6.4 | 0.00 | 0.03 | 0.00 | 1 | 1016.4 |
| 20260507123026 | 0 | 219 | 0.0 | 4.8 | 0.00 | 0.03 | 0.00 | 1 | 1016.4 |
| 20260507122521 | 0 | 219 | 1.6 | 4.8 | 0.00 | 0.03 | 0.00 | 1 | 1016.4 |
| 20260507122021 | 0 | 219 | 1.6 | 6.4 | 0.00 | 0.03 | 0.00 | 1 | 1016.3 |
| 20260507121519 | 0 | 194 | 1.6 | 4.8 | 0.00 | 0.03 | 0.00 | 1 | 1016.3 |
| 20260507121021 | 0 | 203 | 0.0 | 3.2 | 0.00 | 0.03 | 0.00 | 1 | 1016.4 |
| 20260507120515 | 0 | 193 | 0.0 | 3.2 | 0.00 | 0.03 | 0.00 | 1 | 1016.4 |
| 20260507120014 | 0 | 193 | 0.0 | 3.2 | 0.00 | 0.03 | 0.00 | 1 | 1016.3 |
| 20260507115513 | 0 | 193 | 0.0 | 3.2 | 0.00 | 0.03 | 0.00 | 1 | 1016.3 |
| 20260507115013 | 0 | 193 | 0.0 | 3.2 | 0.00 | 0.03 | 0.00 | 1 | 1016.2 |
| 20260507114510 | 0 | 193 | 0.0 | 4.8 | 0.00 | 0.03 | 0.00 | 1 | 1016.2 |
| 20260507114010 | 0 | 193 | 1.6 | 4.8 | 0.00 | 0.03 | 0.00 | 1 | 1016.2 |
| 20260507113508 | 0 | 193 | 0.0 | 3.2 | 0.00 | 0.03 | 0.00 | 1 | 1016.3 |
| 20260507113006 | 0 | 193 | 0.0 | 4.8 | 0.00 | 0.03 | 0.00 | 1 | 1016.3 |
| 20260507112505 | 0 | 193 | 3.2 | 6.4 | 0.00 | 0.03 | 0.00 | 1 | 1016.2 |
| 20260507112003 | 0 | 193 | 3.2 | 4.8 | 0.00 | 0.03 | 0.00 | 1 | 1016.2 |
| 20260507111502 | 0 | 193 | 0.0 | 3.2 | 0.00 | 0.03 | 0.00 | 1 | 1016.3 |
| 20260507111100 | 0 | 192 | 0.0 | 3.2 | 0.00 | 0.03 | 0.00 | 1 | 1016.4 |
| 20260507110559 | 0 | 193 | 1.6 | 3.2 | 0.00 | 0.03 | 0.00 | 1 | 1016.3 |
| 20260507110058 | 0 | 193 | 0.0 | 4.8 | 0.00 | 0.03 | 0.00 | 1 | 1016.3 |
| 20260507105556 | 0 | 192 | 0.0 | 4.8 | 0.00 | 0.03 | 0.00 | 1 | 1016.4 |
| 20260507105056 | 0 | 192 | 0.0 | 9.7 | 0.00 | 0.03 | 0.00 | 1 | 1016.4 |
| 20260507104553 | 0 | 192 | 3.2 | 9.7 | 0.00 | 0.03 | 0.00 | 1 | 1016.3 |
| 20260507104052 | 0 | 192 | 3.2 | 8.0 | 0.00 | 0.03 | 0.00 | 1 | 1016.4 |
| 20260507103550 | 0 | 192 | 4.8 | 8.0 | 0.00 | 0.03 | 0.00 | 1 | 1016.3 |
| 20260507103050 | 0 | 193 | 6.4 | 9.7 | 0.00 | 0.03 | 0.00 | 1 | 1016.3 |
| 20260507102548 | 0 | 203 | 3.2 | 9.7 | 0.00 | 0.03 | 0.00 | 1 | 1016.4 |
| 20260507102046 | 0 | 211 | 4.8 | 8.0 | 0.00 | 0.03 | 0.00 | 1 | 1016.3 |
| 20260507101547 | 0 | 178 | 4.8 | 9.7 | 0.00 | 0.03 | 0.00 | 1 | 1016.3 |
| 20260507101042 | 1 | 190 | 4.8 | 12.9 | 0.00 | 0.03 | 0.00 | 1 | 1016.4 |
| 20260507100541 | 1 | 182 | 8.0 | 12.9 | 0.00 | 0.03 | 0.00 | 1 | 1016.4 |
| 20260507100039 | 1 | 206 | 6.4 | 11.3 | 0.00 | 0.03 | 0.00 | 1 | 1016.5 |
| 20260507095538 | 0 | 195 | 4.8 | 11.3 | 0.00 | 0.03 | 0.00 | 1 | 1016.5 |
| 20260507095036 | 0 | 198 | 6.4 | 11.3 | 0.00 | 0.03 | 0.00 | 1 | 1016.5 |
| 20260507094536 | 0 | 190 | 0.0 | 6.4 | 0.00 | 0.03 | 0.00 | 1 | 1016.5 |
| 20260507094033 | 0 | 190 | 3.2 | 6.4 | 0.00 | 0.03 | 0.00 | 1 | 1016.6 |
| 20260507093531 | 0 | 190 | 3.2 | 8.0 | 0.00 | 0.03 | 0.00 | 1 | 1016.6 |
| 20260507093037 | 0 | 177 | 3.2 | 9.7 | 0.00 | 0.03 | 0.00 | 1 | 1016.6 |
| 20260507092532 | 0 | 196 | 6.4 | 9.7 | 0.00 | 0.03 | 0.00 | 1 | 1016.7 |
| 20260507092027 | 1 | 184 | 6.4 | 11.3 | 0.00 | 0.03 | 0.00 | 1 | 1016.5 |
| 20260507091526 | 0 | 192 | 8.0 | 12.9 | 0.00 | 0.03 | 0.00 | 1 | 1016.6 |
| 20260507091026 | 0 | 214 | 8.0 | 12.9 | 0.00 | 0.03 | 0.00 | 1 | 1016.6 |
| 20260507090525 | 0 | 207 | 3.2 | 6.4 | 0.00 | 0.03 | 0.00 | 1 | 1016.6 |
| 20260507090029 | 1 | 263 | 1.6 | 6.4 | 0.00 | 0.03 | 0.00 | 1 | 1016.7 |
| 20260507085520 | 1 | 263 | 0.0 | 4.8 | 0.00 | 0.03 | 0.00 | 1 | 1016.7 |
| 20260507085019 | 1 | 263 | 0.0 | 4.8 | 0.00 | 0.03 | 0.00 | 1 | 1016.7 |
| 20260507084517 | 1 | 263 | 1.6 | 4.8 | 0.00 | 0.03 | 0.00 | 1 | 1016.7 |
| 20260507084017 | 0 | 263 | 0.0 | 9.7 | 0.00 | 0.03 | 0.00 | 1 | 1016.7 |
| 20260507083515 | 0 | 224 | 3.2 | 8.0 | 0.00 | 0.03 | 0.00 | 1 | 1016.8 |
| 20260507083029 | 0 | 224 | 0.0 | 4.8 | 0.00 | 0.03 | 0.00 | 1 | 1016.7 |
| 20260507082511 | 0 | 224 | 0.0 | 0.0 | 0.00 | 0.03 | 0.00 | 1 | 1016.7 |
| 20260507082010 | 0 | 224 | 0.0 | 3.2 | 0.00 | 0.03 | 0.00 | 1 | 1016.6 |
| 20260507081511 | 0 | 224 | 0.0 | 4.8 | 0.00 | 0.03 | 0.00 | 1 | 1016.8 |
| 20260507081007 | 0 | 224 | 3.2 | 4.8 | 0.00 | 0.03 | 0.00 | 1 | 1016.8 |
| 20260507080506 | 0 | 224 | 1.6 | 4.8 | 0.00 | 0.03 | 0.00 | 1 | 1016.8 |
| 20260507075503 | 0 | 224 | 0.0 | 1.6 | 0.00 | 0.20 | 0.00 | 1 | 1017.0 |
| 20260507075001 | 0 | 224 | 0.0 | 4.8 | 0.00 | 0.20 | 0.00 | 1 | 1017.0 |
| 20260507074604 | 1 | 224 | 0.0 | 4.8 | 0.00 | 0.20 | 0.00 | 1 | 1017.0 |
| 20260507074057 | 1 | 224 | 3.2 | 4.8 | 0.00 | 0.20 | 0.00 | 1 | 1017.0 |
| 20260507073556 | 1 | 224 | 3.2 | 4.8 | 0.00 | 0.20 | 0.00 | 1 | 1017.0 |
| 20260507073106 | 1 | 224 | 0.0 | 3.2 | 0.00 | 0.20 | 0.00 | 1 | 1017.0 |
| 20260507072554 | 1 | 224 | 0.0 | 4.8 | 0.00 | 0.20 | 0.00 | 1 | 1017.1 |
| 20260507072052 | 2 | 224 | 0.0 | 4.8 | 0.00 | 0.20 | 0.00 | 1 | 1017.0 |
| 20260507071601 | 2 | 224 | 1.6 | 4.8 | 0.00 | 0.20 | 0.00 | 1 | 1017.0 |
| 20260507071051 | 2 | 224 | 0.0 | 4.8 | 0.00 | 0.20 | 0.00 | 1 | 1016.8 |
| 20260507070548 | 1 | 224 | 3.2 | 4.8 | 0.00 | 0.20 | 0.00 | 1 | 1016.9 |
| 20260507070046 | 1 | 168 | 0.0 | 4.8 | 0.00 | 0.20 | 0.00 | 5 | 1016.8 |
| 20260507065544 | 2 | 168 | 1.6 | 4.8 | 0.00 | 0.38 | 0.00 | 8 | 1016.9 |
| 20260507065046 | 2 | 168 | 1.6 | 4.8 | 0.00 | 0.38 | 0.00 | 8 | 1016.8 |
| 20260507064546 | 2 | 168 | 1.6 | 6.4 | 0.00 | 0.38 | 0.00 | 20 | 1016.7 |
| 20260507064040 | 2 | 168 | 0.0 | 6.4 | 0.00 | 0.38 | 0.00 | 31 | 1016.7 |
| 20260507063539 | 2 | 168 | 4.8 | 6.4 | 0.00 | 0.38 | 0.00 | 27 | 1016.6 |
| 20260507063040 | 2 | 168 | 0.0 | 3.2 | 0.00 | 0.38 | 0.00 | 30 | 1016.7 |
| 20260507062535 | 3 | 168 | 0.0 | 6.4 | 0.00 | 0.38 | 0.00 | 36 | 1016.9 |
| 20260507062034 | 3 | 168 | 3.2 | 6.4 | 0.00 | 0.38 | 0.00 | 35 | 1016.6 |
| 20260507061535 | 3 | 168 | 1.6 | 3.2 | 0.00 | 0.38 | 0.00 | 33 | 1016.7 |
| 20260507061033 | 3 | 168 | 0.0 | 3.2 | 0.00 | 0.38 | 0.00 | 34 | 1016.7 |
| 20260507060530 | 3 | 168 | 1.6 | 3.2 | 0.00 | 0.38 | 0.00 | 33 | 1016.6 |
| 20260507060029 | 4 | 168 | 0.0 | 0.0 | 0.00 | 0.38 | 0.00 | 29 | 1016.5 |
| 20260507055529 | 4 | 168 | 0.0 | 1.6 | 0.00 | 0.38 | 0.38 | 27 | 1016.5 |
| 20260507055030 | 4 | 168 | 0.0 | 3.2 | 0.00 | 0.38 | 0.38 | 24 | 1016.5 |
| 20260507054526 | 4 | 168 | 0.0 | 1.6 | 0.00 | 0.38 | 0.38 | 22 | 1016.4 |
| 20260507054024 | 4 | 168 | 0.0 | 0.0 | 0.00 | 0.38 | 0.38 | 20 | 1016.4 |
| 20260507053523 | 4 | 168 | 0.0 | 0.0 | 0.00 | 0.38 | 0.38 | 20 | 1016.3 |
| 20260507053023 | 4 | 168 | 0.0 | 1.6 | 0.00 | 0.38 | 0.38 | 21 | 1016.3 |
| 20260507052520 | 4 | 168 | 0.0 | 4.8 | 0.00 | 0.38 | 0.38 | 21 | 1016.3 |
| 20260507052019 | 4 | 168 | 1.6 | 4.8 | 0.00 | 0.38 | 0.38 | 23 | 1016.2 |
| 20260507051518 | 4 | 168 | 0.0 | 1.6 | 0.00 | 0.38 | 0.38 | 26 | 1016.2 |
| 20260507051015 | 3 | 168 | 0.0 | 1.6 | 0.00 | 0.38 | 0.38 | 36 | 1016.2 |
| 20260507050514 | 4 | 168 | 0.0 | 3.2 | 0.00 | 0.38 | 0.38 | 44 | 1016.3 |
| 20260507050013 | 4 | 168 | 0.0 | 3.2 | 0.00 | 0.38 | 0.38 | 45 | 1016.2 |
| 20260507045511 | 5 | 168 | 0.0 | 4.8 | 0.00 | 0.38 | 0.38 | 43 | 1016.2 |
| 20260507045009 | 5 | 168 | 0.0 | 4.8 | 0.00 | 0.38 | 0.38 | 44 | 1016.2 |
| 20260507044508 | 5 | 168 | 1.6 | 6.4 | 0.00 | 0.38 | 0.38 | 46 | 1016.2 |
| 20260507044008 | 5 | 168 | 3.2 | 6.4 | 0.00 | 0.38 | 0.38 | 43 | 1016.0 |
| 20260507043507 | 5 | 209 | 0.0 | 8.0 | 0.00 | 0.38 | 0.38 | 40 | 1016.0 |
| 20260507043006 | 5 | 176 | 6.4 | 8.0 | 0.00 | 0.38 | 0.38 | 39 | 1016.0 |
| 20260507042504 | 5 | 171 | 3.2 | 8.0 | 0.00 | 0.38 | 0.38 | 36 | 1015.9 |
| 20260507042001 | 4 | 175 | 4.8 | 11.3 | 0.00 | 0.38 | 0.38 | 37 | 1015.7 |
| 20260507041059 | 4 | 132 | 4.8 | 8.0 | 0.00 | 0.38 | 0.38 | 44 | 1015.7 |
| 20260507040600 | 4 | 214 | 1.6 | 6.4 | 0.00 | 0.38 | 0.38 | 44 | 1015.6 |
| 20260507040105 | 5 | 214 | 1.6 | 3.2 | 0.00 | 0.38 | 0.38 | 44 | 1015.6 |
| 20260507035555 | 5 | 214 | 0.0 | 4.8 | 0.00 | 0.38 | 0.38 | 46 | 1015.5 |
| 20260507035053 | 5 | 215 | 3.2 | 4.8 | 0.00 | 0.38 | 0.38 | 47 | 1015.6 |
| 20260507034557 | 5 | 214 | 1.6 | 4.8 | 0.00 | 0.38 | 0.38 | 46 | 1015.6 |
| 20260507034050 | 5 | 215 | 1.6 | 4.8 | 0.00 | 0.38 | 0.38 | 47 | 1015.5 |
| 20260507033549 | 5 | 215 | 1.6 | 4.8 | 0.00 | 0.38 | 0.38 | 49 | 1015.4 |
| 20260507033048 | 5 | 215 | 0.0 | 4.8 | 0.00 | 0.38 | 0.38 | 50 | 1015.3 |
| 20260507032547 | 6 | 215 | 0.0 | 4.8 | 0.00 | 0.38 | 0.38 | 50 | 1015.2 |
| 20260507032044 | 6 | 215 | 0.0 | 6.4 | 0.00 | 0.38 | 0.38 | 51 | 1015.1 |
| 20260507031543 | 6 | 215 | 1.6 | 6.4 | 0.00 | 0.38 | 0.38 | 52 | 1015.0 |
| 20260507031041 | 7 | 249 | 0.0 | 3.2 | 0.00 | 0.38 | 0.38 | 53 | 1015.0 |
| 20260507030541 | 7 | 249 | 0.0 | 3.2 | 0.00 | 0.38 | 0.38 | 53 | 1015.0 |
| 20260507030039 | 7 | 249 | 0.0 | 3.2 | 0.00 | 0.38 | 0.38 | 53 | 1015.0 |
| 20260507025538 | 7 | 249 | 0.0 | 3.2 | 0.00 | 0.38 | 0.38 | 53 | 1014.9 |
| 20260507025036 | 8 | 249 | 1.6 | 4.8 | 0.00 | 0.38 | 0.38 | 54 | 1014.9 |
| 20260507024536 | 8 | 249 | 1.6 | 4.8 | 0.00 | 0.38 | 0.38 | 53 | 1014.9 |
| 20260507024035 | 9 | 249 | 1.6 | 4.8 | 0.00 | 0.38 | 0.38 | 52 | 1014.9 |
| 20260507023532 | 10 | 249 | 0.0 | 4.8 | 0.00 | 0.38 | 0.38 | 51 | 1014.8 |
| 20260507023032 | 10 | 249 | 1.6 | 4.8 | 0.00 | 0.38 | 0.38 | 49 | 1014.8 |
| 20260507022532 | 11 | 249 | 1.6 | 4.8 | 0.00 | 0.38 | 0.38 | 46 | 1014.8 |
| 20260507022031 | 12 | 249 | 1.6 | 9.7 | 0.00 | 0.38 | 0.38 | 42 | 1014.7 |
| 20260507021529 | 14 | 247 | 1.6 | 9.7 | 0.00 | 0.38 | 0.38 | 39 | 1014.7 |
| 20260507021028 | 14 | 1 | 0.0 | 4.8 | 0.00 | 0.38 | 0.38 | 35 | 1014.7 |
| 20260507020527 | 15 | 1 | 0.0 | 4.8 | 0.00 | 0.38 | 0.38 | 34 | 1014.7 |
| 20260507020025 | 15 | 1 | 0.0 | 4.8 | 0.00 | 0.38 | 0.38 | 33 | 1014.7 |
| 20260507015526 | 15 | 360 | 1.6 | 6.4 | 0.00 | 0.38 | 0.38 | 31 | 1014.7 |
| 20260507015022 | 15 | 6 | 3.2 | 6.4 | 0.00 | 0.38 | 0.38 | 31 | 1014.7 |
| 20260507014521 | 15 | 211 | 3.2 | 8.0 | 0.00 | 0.38 | 0.38 | 31 | 1014.7 |
| 20260507014020 | 15 | 6 | 3.2 | 12.9 | 0.00 | 0.38 | 0.38 | 31 | 1014.8 |
| 20260507013518 | 15 | 359 | 6.4 | 14.5 | 0.00 | 0.38 | 0.38 | 29 | 1014.7 |
| 20260507013016 | 15 | 9 | 6.4 | 14.5 | 0.00 | 0.38 | 0.38 | 30 | 1014.7 |
| 20260507012518 | 16 | 350 | 6.4 | 16.1 | 0.00 | 0.38 | 0.38 | 30 | 1014.7 |
| 20260507012013 | 16 | 26 | 8.0 | 16.1 | 0.00 | 0.38 | 0.38 | 29 | 1014.7 |
| 20260507011523 | 16 | 18 | 8.0 | 16.1 | 0.00 | 0.38 | 0.38 | 29 | 1014.7 |
| 20260507011010 | 16 | 4 | 8.0 | 17.7 | 0.00 | 0.38 | 0.38 | 30 | 1014.7 |
| 20260507010509 | 16 | 345 | 8.0 | 17.7 | 0.00 | 0.38 | 0.38 | 30 | 1014.7 |
| 20260507010008 | 16 | 355 | 4.8 | 16.1 | 0.00 | 0.38 | 0.38 | 30 | 1014.7 |
| 20260507005512 | 16 | 37 | 8.0 | 17.7 | 0.00 | 0.38 | 0.38 | 29 | 1014.7 |
| 20260507005004 | 16 | 65 | 6.4 | 14.5 | 0.00 | 0.38 | 0.38 | 29 | 1014.7 |
| 20260507004505 | 16 | 41 | 9.7 | 16.1 | 0.00 | 0.38 | 0.38 | 29 | 1014.7 |
| 20260507004002 | 16 | 17 | 9.7 | 16.1 | 0.00 | 0.38 | 0.38 | 29 | 1014.7 |
| 20260507003600 | 16 | 24 | 9.7 | 17.7 | 0.00 | 0.38 | 0.38 | 29 | 1014.7 |
| 20260507003059 | 16 | 20 | 11.3 | 17.7 | 0.00 | 0.38 | 0.38 | 29 | 1014.7 |
| 20260507002557 | 16 | 20 | 8.0 | 19.3 | 0.00 | 0.38 | 0.38 | 29 | 1014.5 |
| 20260507002057 | 16 | 59 | 12.9 | 19.3 | 0.00 | 0.38 | 0.38 | 28 | 1014.6 |
| 20260507001613 | 16 | 28 | 11.3 | 22.5 | 0.00 | 0.38 | 0.38 | 29 | 1014.6 |
| 20260507001052 | 16 | 3 | 14.5 | 22.5 | 0.00 | 0.38 | 0.38 | 29 | 1014.6 |
| 20260507000553 | 16 | 32 | 11.3 | 24.1 | 0.00 | 0.38 | 0.38 | 29 | 1014.6 |
| 20260507000057 | 16 | 27 | 14.5 | 22.5 | 0.00 | 0.38 | 0.38 | 29 | 1014.5 |
| 20260506235549 | 16 | 37 | 14.5 | 20.9 | 0.00 | 0.38 | 0.38 | 29 | 1014.6 |
| 20260506235050 | 16 | 22 | 11.3 | 20.9 | 0.00 | 0.38 | 0.38 | 29 | 1014.7 |
| 20260506234547 | 16 | 55 | 14.5 | 20.9 | 0.00 | 0.38 | 0.38 | 29 | 1014.8 |
| 20260506234044 | 16 | 46 | 12.9 | 22.5 | 0.00 | 0.38 | 0.38 | 29 | 1014.8 |
| 20260506233543 | 16 | 22 | 16.1 | 25.7 | 0.00 | 0.38 | 0.38 | 29 | 1014.9 |
| 20260506233041 | 16 | 22 | 14.5 | 24.1 | 0.00 | 0.38 | 0.38 | 29 | 1014.9 |
| 20260506232539 | 16 | 22 | 12.9 | 24.1 | 0.00 | 0.38 | 0.38 | 29 | 1014.9 |
| 20260506232038 | 16 | 53 | 16.1 | 24.1 | 0.00 | 0.38 | 0.38 | 29 | 1014.9 |
| 20260506231537 | 16 | 41 | 16.1 | 25.7 | 0.00 | 0.38 | 0.38 | 29 | 1015.0 |
| 20260506231035 | 16 | 345 | 14.5 | 25.7 | 0.00 | 0.38 | 0.38 | 30 | 1015.0 |
| 20260506230533 | 16 | 31 | 16.1 | 25.7 | 0.00 | 0.38 | 0.38 | 30 | 1014.9 |
| 20260506230031 | 16 | 42 | 12.9 | 27.4 | 0.00 | 0.38 | 0.38 | 30 | 1015.0 |
| 20260506225531 | 15 | 10 | 20.9 | 27.4 | 0.00 | 0.38 | 0.38 | 31 | 1015.0 |
| 20260506225030 | 15 | 14 | 17.7 | 27.4 | 0.00 | 0.38 | 0.38 | 29 | 1015.1 |
| 20260506224530 | 15 | 44 | 16.1 | 29.0 | 0.00 | 0.38 | 0.38 | 30 | 1015.1 |
| 20260506224026 | 15 | 9 | 16.1 | 25.7 | 0.00 | 0.38 | 0.38 | 30 | 1015.2 |
| 20260506223526 | 15 | 35 | 16.1 | 35.4 | 0.00 | 0.38 | 0.38 | 31 | 1015.3 |
| 20260506223024 | 15 | 4 | 14.5 | 38.6 | 0.00 | 0.38 | 0.38 | 32 | 1015.2 |
| 20260506222522 | 15 | 13 | 22.5 | 38.6 | 0.00 | 0.38 | 0.38 | 30 | 1015.2 |
| 20260506222020 | 15 | 359 | 17.7 | 30.6 | 0.00 | 0.38 | 0.38 | 30 | 1015.2 |
| 20260506221518 | 15 | 2 | 20.9 | 32.2 | 0.00 | 0.38 | 0.38 | 30 | 1015.3 |
| 20260506221017 | 15 | 9 | 19.3 | 32.2 | 0.00 | 0.38 | 0.38 | 30 | 1015.3 |
| 20260506220516 | 15 | 8 | 14.5 | 25.7 | 0.00 | 0.38 | 0.38 | 30 | 1015.3 |
| 20260506220015 | 15 | 359 | 16.1 | 30.6 | 0.00 | 0.38 | 0.38 | 30 | 1015.3 |
| 20260506215513 | 15 | 3 | 17.7 | 30.6 | 0.00 | 0.38 | 0.38 | 31 | 1015.4 |
| 20260506215012 | 15 | 12 | 16.1 | 25.7 | 0.00 | 0.38 | 0.38 | 31 | 1015.4 |
| 20260506214510 | 15 | 26 | 17.7 | 33.8 | 0.00 | 0.38 | 0.38 | 32 | 1015.5 |
| 20260506214009 | 14 | 12 | 19.3 | 33.8 | 0.00 | 0.38 | 0.38 | 33 | 1015.6 |
| 20260506213507 | 14 | 14 | 16.1 | 27.4 | 0.00 | 0.38 | 0.38 | 32 | 1015.7 |
| 20260506213008 | 14 | 328 | 12.9 | 27.4 | 0.00 | 0.38 | 0.38 | 32 | 1015.7 |
| 20260506212508 | 14 | 345 | 16.1 | 27.4 | 0.00 | 0.38 | 0.38 | 33 | 1015.7 |
| 20260506212004 | 14 | 23 | 17.7 | 30.6 | 0.00 | 0.38 | 0.38 | 32 | 1015.7 |
| 20260506211501 | 14 | 350 | 17.7 | 30.6 | 0.00 | 0.38 | 0.38 | 33 | 1015.6 |
| 20260506211103 | 13 | 323 | 16.1 | 32.2 | 0.00 | 0.38 | 0.38 | 31 | 1015.7 |